�������l�o���
Date,Time,MP-1(��Sv/h),MP-2(��Sv/h),MP-3(��Sv/h),MP-4(��Sv/h),MP-5(��Sv/h),MP-6(��Sv/h),MP-7(��Sv/h),MP-8(��Sv/h),����,����(m/s),���J
2019/10/01,00:00,0.746,1.059,0.729,1.299,0.954,0.423,0.737,0.696,��,1.5,��
2019/10/01,00:10,0.746,1.056,0.730,1.299,0.952,0.423,0.737,0.694,��,1.1,��
2019/10/01,00:20,0.744,1.058,0.730,1.298,0.954,0.422,0.737,0.695,��쓌,0.9,��
2019/10/01,00:30,0.746,1.058,0.730,1.298,0.954,0.422,0.737,0.696,��쐼,0.6,��
2019/10/01,00:40,0.744,1.058,0.730,1.298,0.953,0.423,0.737,0.694,-,CALM,��
2019/10/01,00:50,0.744,1.057,0.731,1.297,0.952,0.424,0.735,0.693,-,CALM,��
2019/10/01,01:00,0.746,1.058,0.730,1.295,0.951,0.424,0.738,0.696,-,CALM,��
2019/10/01,01:10,0.747,1.058,0.730,1.298,0.954,0.422,0.737,0.695,�k��,0.6,��
2019/10/01,01:20,0.744,1.058,0.730,1.301,0.954,0.422,0.737,0.693,��,0.8,��
2019/10/01,01:30,0.745,1.058,0.729,1.296,0.953,0.423,0.738,0.696,���k��,1.5,��
2019/10/01,01:40,0.745,1.057,0.730,1.299,0.951,0.422,0.735,0.694,�k��,1.2,��
2019/10/01,01:50,0.744,1.058,0.729,1.297,0.951,0.424,0.738,0.694,�k��,1.2,��
2019/10/01,02:00,0.743,1.058,0.731,1.299,0.951,0.423,0.738,0.694,�k�k��,1.2,��
2019/10/01,02:10,0.743,1.058,0.728,1.297,0.954,0.423,0.737,0.694,�k,2.2,��
2019/10/01,02:20,0.746,1.059,0.730,1.299,0.952,0.423,0.737,0.695,�k�k��,4.0,��
2019/10/01,02:30,0.743,1.060,0.728,1.298,0.955,0.423,0.736,0.696,�k��,3.2,��
2019/10/01,02:40,0.743,1.059,0.729,1.298,0.954,0.420,0.738,0.694,�k�k��,3.4,��
2019/10/01,02:50,0.745,1.057,0.731,1.299,0.953,0.422,0.737,0.694,�k�k��,3.2,��
2019/10/01,03:00,0.743,1.057,0.729,1.299,0.953,0.422,0.738,0.694,�k�k��,1.7,��
2019/10/01,03:10,0.744,1.058,0.728,1.297,0.952,0.423,0.738,0.696,�k�k��,2.0,��
2019/10/01,03:20,0.743,1.057,0.727,1.299,0.950,0.422,0.737,0.695,�k�k��,2.3,��
2019/10/01,03:30,0.743,1.059,0.727,1.297,0.951,0.422,0.738,0.694,�k,3.3,��
2019/10/01,03:40,0.745,1.057,0.730,1.298,0.953,0.422,0.737,0.696,�k,3.9,��
2019/10/01,03:50,0.743,1.057,0.729,1.299,0.951,0.422,0.737,0.696,�k�k��,3.4,��
2019/10/01,04:00,0.744,1.058,0.727,1.298,0.953,0.421,0.737,0.695,�k�k��,4.1,��
2019/10/01,04:10,0.744,1.056,0.729,1.296,0.951,0.421,0.739,0.695,�k�k��,3.4,��
2019/10/01,04:20,0.743,1.055,0.728,1.298,0.952,0.421,0.737,0.696,�k�k��,3.0,��
2019/10/01,04:30,0.743,1.057,0.727,1.298,0.951,0.421,0.739,0.696,�k�k��,2.9,��
2019/10/01,04:40,0.741,1.056,0.728,1.299,0.948,0.421,0.736,0.696,�k�k��,3.0,��
2019/10/01,04:50,0.743,1.057,0.729,1.297,0.951,0.421,0.735,0.695,�k�k��,4.0,��
2019/10/01,05:00,0.741,1.055,0.728,1.297,0.951,0.421,0.737,0.695,�k�k��,4.4,��
2019/10/01,05:10,0.745,1.059,0.730,1.298,0.952,0.421,0.737,0.694,�k�k��,4.6,��
2019/10/01,05:20,0.742,1.055,0.728,1.296,0.952,0.421,0.736,0.695,�k�k��,5.6,��
2019/10/01,05:30,0.742,1.058,0.729,1.299,0.950,0.421,0.737,0.694,�k�k��,5.6,��
2019/10/01,05:40,0.742,1.055,0.728,1.297,0.951,0.422,0.736,0.697,�k�k��,5.6,��
2019/10/01,05:50,0.741,1.056,0.728,1.299,0.952,0.422,0.736,0.695,�k�k��,5.1,��
2019/10/01,06:00,0.744,1.057,0.729,1.300,0.951,0.421,0.737,0.694,�k�k��,5.3,��
2019/10/01,06:10,0.740,1.057,0.727,1.298,0.952,0.421,0.736,0.695,�k�k��,5.6,��
2019/10/01,06:20,0.743,1.056,0.730,1.297,0.953,0.422,0.737,0.694,�k�k��,5.7,��
2019/10/01,06:30,0.741,1.058,0.727,1.300,0.953,0.422,0.737,0.693,�k�k��,5.8,��
2019/10/01,06:40,0.744,1.054,0.729,1.298,0.952,0.422,0.736,0.693,�k�k��,5.7,��
2019/10/01,06:50,0.744,1.058,0.729,1.299,0.952,0.421,0.737,0.695,�k�k��,5.3,��
2019/10/01,07:00,0.744,1.057,0.728,1.297,0.952,0.421,0.735,0.695,�k�k��,5.1,��
2019/10/01,07:10,0.744,1.058,0.730,1.299,0.952,0.421,0.735,0.696,�k�k��,4.6,��
2019/10/01,07:20,0.742,1.056,0.729,1.298,0.952,0.421,0.737,0.697,�k�k��,4.4,��
2019/10/01,07:30,0.745,1.058,0.730,1.299,0.951,0.420,0.734,0.695,�k�k��,5.1,��
2019/10/01,07:40,0.743,1.055,0.730,1.299,0.952,0.420,0.735,0.696,�k�k��,4.4,��
2019/10/01,07:50,0.744,1.057,0.730,1.301,0.950,0.420,0.734,0.697,�k�k��,4.5,��
2019/10/01,08:00,0.742,1.055,0.729,1.300,0.950,0.420,0.735,0.694,�k��,3.2,��
2019/10/01,08:10,0.744,1.054,0.729,1.297,0.949,0.419,0.734,0.698,�k��,3.2,��
2019/10/01,08:20,0.743,1.052,0.729,1.297,0.948,0.421,0.734,0.695,�k�k��,3.2,��
2019/10/01,08:30,0.743,1.054,0.725,1.299,0.950,0.420,0.735,0.695,�k�k��,3.1,��
2019/10/01,08:40,0.744,1.053,0.727,1.300,0.952,0.420,0.734,0.693,�k�k��,2.6,��
2019/10/01,08:50,0.743,1.053,0.726,1.301,0.952,0.420,0.735,0.694,�k�k��,3.6,��
2019/10/01,09:00,0.744,1.054,0.730,1.301,0.954,0.419,0.737,0.692,�k�k��,2.3,��
2019/10/01,09:10,0.744,1.053,0.728,1.301,0.953,0.418,0.737,0.693,�k�k��,2.8,��
2019/10/01,09:20,0.741,1.053,0.727,1.299,0.951,0.419,0.736,0.693,�k,2.6,��
2019/10/01,09:30,0.746,1.050,0.726,1.300,0.952,0.418,0.737,0.694,�k�k��,2.0,��
2019/10/01,09:40,0.744,1.051,0.728,1.298,0.951,0.419,0.735,0.695,�k�k��,2.6,��
2019/10/01,09:50,0.746,1.051,0.728,1.300,0.952,0.420,0.736,0.694,�k�k��,3.3,��
2019/10/01,10:00,0.746,1.053,0.727,1.299,0.953,0.420,0.736,0.695,�k�k��,3.0,��
2019/10/01,10:10,0.747,1.053,0.728,1.302,0.951,0.421,0.737,0.694,�k��,3.1,��
2019/10/01,10:20,0.745,1.053,0.727,1.301,0.946,0.420,0.736,0.696,�k��,3.9,��
2019/10/01,10:30,0.746,1.053,0.729,1.300,0.949,0.420,0.736,0.693,�k��,3.0,��
2019/10/01,10:40,0.745,1.054,0.727,1.301,0.949,0.419,0.736,0.693,�k��,3.6,��
2019/10/01,10:50,0.745,1.055,0.729,1.300,0.948,0.420,0.737,0.695,�k��,4.1,��
2019/10/01,11:00,0.747,1.054,0.727,1.302,0.948,0.420,0.739,0.694,�k��,4.4,��
2019/10/01,11:10,0.743,1.056,0.728,1.302,0.950,0.419,0.735,0.695,�k��,4.1,��
2019/10/01,11:20,0.745,1.056,0.729,1.303,0.949,0.420,0.738,0.694,���k��,3.9,��
2019/10/01,11:30,0.746,1.052,0.730,1.302,0.949,0.421,0.738,0.695,�k��,4.0,��
2019/10/01,11:40,0.746,1.055,0.729,1.301,0.950,0.421,0.739,0.695,�k��,3.9,��
2019/10/01,11:50,0.747,1.062,0.730,1.302,0.953,0.421,0.738,0.695,���k��,3.5,��
2019/10/01,12:00,0.746,1.064,0.731,1.304,0.949,0.420,0.736,0.695,�k��,2.6,��
2019/10/01,12:10,0.746,1.061,0.731,1.303,0.955,0.422,0.736,0.694,���k��,2.6,��
2019/10/01,12:20,0.746,1.063,0.729,1.303,0.958,0.419,0.737,0.695,�k��,2.8,��
2019/10/01,12:30,0.746,1.064,0.731,1.303,0.959,0.419,0.736,0.694,��,2.6,��
2019/10/01,12:40,0.745,1.063,0.732,1.300,0.958,0.422,0.738,0.696,���k��,2.6,��
2019/10/01,12:50,0.748,1.062,0.730,1.304,0.957,0.421,0.736,0.696,���k��,2.3,��
2019/10/01,13:00,0.746,1.062,0.732,1.304,0.957,0.422,0.735,0.695,���k��,2.6,��
2019/10/01,13:10,0.745,1.062,0.729,1.301,0.958,0.419,0.738,0.695,�k��,2.5,��
2019/10/01,13:20,0.747,1.060,0.730,1.304,0.958,0.420,0.736,0.693,���k��,3.0,��
2019/10/01,13:30,0.745,1.060,0.731,1.305,0.957,0.422,0.737,0.695,�k��,2.9,��
2019/10/01,13:40,0.749,1.060,0.732,1.304,0.957,0.420,0.737,0.695,���k��,2.9,��
2019/10/01,13:50,0.748,1.058,0.730,1.304,0.958,0.421,0.738,0.696,���k��,2.9,��
2019/10/01,14:00,0.747,1.059,0.730,1.304,0.959,0.421,0.736,0.695,���k��,2.6,��
2019/10/01,14:10,0.745,1.061,0.731,1.302,0.957,0.421,0.736,0.694,��,2.3,��
2019/10/01,14:20,0.747,1.061,0.730,1.304,0.961,0.423,0.738,0.696,���쓌,2.6,��
2019/10/01,14:30,0.747,1.057,0.731,1.305,0.960,0.421,0.737,0.695,��,1.9,��
2019/10/01,14:40,0.746,1.060,0.731,1.304,0.957,0.421,0.736,0.695,���쓌,2.3,��
2019/10/01,14:50,0.746,1.061,0.731,1.305,0.958,0.420,0.735,0.696,���쓌,2.6,��
2019/10/01,15:00,0.748,1.061,0.732,1.303,0.961,0.423,0.736,0.695,���쓌,2.6,��
2019/10/01,15:10,0.747,1.060,0.730,1.304,0.960,0.423,0.737,0.695,���쓌,2.0,��
2019/10/01,15:20,0.746,1.062,0.733,1.303,0.957,0.421,0.736,0.695,���쓌,2.5,��
2019/10/01,15:30,0.746,1.065,0.732,1.304,0.958,0.422,0.738,0.694,��쓌,2.0,��
2019/10/01,15:40,0.750,1.063,0.733,1.304,0.958,0.422,0.737,0.695,��쓌,1.7,��
2019/10/01,15:50,0.748,1.065,0.732,1.301,0.958,0.421,0.737,0.695,��쓌,2.2,��
2019/10/01,16:00,0.747,1.065,0.731,1.304,0.960,0.423,0.737,0.695,��쓌,2.3,��
2019/10/01,16:10,0.748,1.067,0.731,1.304,0.962,0.423,0.738,0.696,��쓌,2.6,��
2019/10/01,16:20,0.749,1.069,0.731,1.304,0.960,0.424,0.735,0.696,��쓌,3.0,��
2019/10/01,16:30,0.745,1.067,0.731,1.305,0.962,0.423,0.736,0.693,��,3.3,��
2019/10/01,16:40,0.747,1.065,0.730,1.305,0.959,0.424,0.738,0.694,��,2.6,��
2019/10/01,16:50,0.748,1.068,0.731,1.304,0.960,0.422,0.737,0.693,��,2.9,��
2019/10/01,17:00,0.748,1.071,0.731,1.305,0.960,0.423,0.738,0.697,��,2.9,��
2019/10/01,17:10,0.748,1.070,0.732,1.304,0.962,0.424,0.739,0.699,��,3.2,��
2019/10/01,17:20,0.751,1.070,0.733,1.305,0.958,0.424,0.738,0.695,��,3.0,��
2019/10/01,17:30,0.748,1.070,0.733,1.306,0.960,0.424,0.736,0.696,��,3.1,��
2019/10/01,17:40,0.751,1.068,0.733,1.305,0.962,0.424,0.735,0.697,��,2.6,��
2019/10/01,17:50,0.748,1.072,0.735,1.302,0.961,0.424,0.737,0.696,��쐼,2.8,��
2019/10/01,18:00,0.748,1.070,0.735,1.303,0.962,0.423,0.738,0.698,��,3.1,��
2019/10/01,18:10,0.751,1.067,0.735,1.303,0.964,0.423,0.739,0.697,��,2.0,��
2019/10/01,18:20,0.750,1.068,0.735,1.306,0.962,0.423,0.737,0.696,��쐼,2.3,��
2019/10/01,18:30,0.750,1.068,0.734,1.305,0.959,0.425,0.738,0.698,��쐼,2.5,��
2019/10/01,18:40,0.749,1.070,0.735,1.304,0.963,0.425,0.738,0.696,��쐼,1.9,��
2019/10/01,18:50,0.750,1.071,0.734,1.304,0.958,0.424,0.737,0.697,��쐼,1.7,��
2019/10/01,19:00,0.748,1.069,0.734,1.303,0.961,0.424,0.738,0.696,��,1.2,��
2019/10/01,19:10,0.748,1.070,0.735,1.304,0.962,0.423,0.739,0.696,��쐼,1.2,��
2019/10/01,19:20,0.749,1.070,0.734,1.308,0.962,0.424,0.737,0.697,��쐼,1.5,��
2019/10/01,19:30,0.746,1.070,0.735,1.303,0.962,0.425,0.739,0.696,�쐼,1.7,��
2019/10/01,19:40,0.750,1.070,0.734,1.305,0.963,0.425,0.738,0.699,���쐼,1.9,��
2019/10/01,19:50,0.748,1.070,0.733,1.305,0.960,0.424,0.739,0.697,��쓌,1.4,��
2019/10/01,20:00,0.749,1.067,0.734,1.304,0.963,0.424,0.738,0.695,��,0.9,��
2019/10/01,20:10,0.747,1.068,0.735,1.305,0.961,0.423,0.738,0.696,��쐼,1.2,��
2019/10/01,20:20,0.747,1.069,0.736,1.304,0.964,0.423,0.736,0.697,�쐼,1.5,��
2019/10/01,20:30,0.749,1.068,0.734,1.305,0.962,0.424,0.739,0.696,�쐼,1.2,��
2019/10/01,20:40,0.747,1.069,0.736,1.307,0.960,0.424,0.739,0.696,���쐼,0.9,��
2019/10/01,20:50,0.748,1.068,0.733,1.305,0.963,0.424,0.738,0.698,�쐼,0.8,��
2019/10/01,21:00,0.747,1.067,0.733,1.304,0.963,0.424,0.739,0.697,��쐼,0.9,��
2019/10/01,21:10,0.747,1.067,0.733,1.303,0.960,0.424,0.739,0.696,��,0.8,��
2019/10/01,21:20,0.749,1.066,0.734,1.302,0.962,0.423,0.738,0.697,���쐼,1.1,��
2019/10/01,21:30,0.746,1.068,0.734,1.301,0.960,0.423,0.736,0.696,��,1.2,��
2019/10/01,21:40,0.747,1.066,0.734,1.306,0.962,0.425,0.739,0.697,��,1.2,��
2019/10/01,21:50,0.748,1.066,0.732,1.305,0.962,0.425,0.739,0.697,��,1.7,��
2019/10/01,22:00,0.747,1.066,0.734,1.305,0.961,0.425,0.738,0.698,��쐼,1.1,��
2019/10/01,22:10,0.746,1.067,0.735,1.305,0.961,0.425,0.738,0.697,���쐼,1.2,��
2019/10/01,22:20,0.747,1.067,0.734,1.306,0.961,0.423,0.738,0.698,��,2.0,��
2019/10/01,22:30,0.748,1.065,0.734,1.303,0.959,0.424,0.738,0.695,��,1.9,��
2019/10/01,22:40,0.746,1.067,0.734,1.306,0.962,0.424,0.738,0.696,��,0.9,��
2019/10/01,22:50,0.747,1.065,0.733,1.303,0.961,0.423,0.737,0.696,-,CALM,��
2019/10/01,23:00,0.746,1.067,0.733,1.305,0.962,0.425,0.739,0.696,�쐼,0.9,��
2019/10/01,23:10,0.749,1.065,0.735,1.304,0.960,0.423,0.738,0.696,�쐼,1.1,��
2019/10/01,23:20,0.745,1.065,0.732,1.305,0.960,0.423,0.739,0.697,���쐼,1.5,��
2019/10/01,23:30,0.747,1.064,0.733,1.306,0.960,0.423,0.738,0.697,�쐼,1.4,��
2019/10/01,23:40,0.745,1.065,0.733,1.305,0.960,0.425,0.738,0.697,�쐼,1.5,��
2019/10/01,23:50,0.746,1.067,0.733,1.305,0.958,0.424,0.739,0.695,�쐼,1.7,��
